Time,TemperatureF,DewpointF,PressureIn,WindDirection,WindDirectionDegrees,WindSpeedMPH,WindSpeedGustMPH,Humidity,HourlyPrecipIn,Conditions,Clouds,dailyrainin,SoftwareType,DateUTC
2013-04-27 00:01:00,74.5,73.9,31.00,SE,135,0.0,0.0,98,0.00,CLR,,0.00,WeatherDisplay:10.37,2013-04-27 04:01:00,
2013-04-27 00:03:00,74.5,73.9,31.00,SE,135,0.0,0.0,98,0.00,CLR,,0.00,WeatherDisplay:10.37,2013-04-27 04:03:00,
2013-04-27 00:08:00,74.5,73.9,31.00,SE,135,0.0,0.0,98,0.00,CLR,,0.00,WeatherDisplay:10.37,2013-04-27 04:08:00,
2013-04-27 00:13:00,74.5,73.9,31.03,SE,135,0.0,0.0,98,0.00,CLR,,0.00,WeatherDisplay:10.37,2013-04-27 04:13:00,
2013-04-27 00:18:00,74.5,73.9,31.03,SE,135,0.0,0.0,98,0.00,CLR,,0.00,WeatherDisplay:10.37,2013-04-27 04:18:00,
2013-04-27 00:23:00,74.5,73.9,31.04,South,180,0.0,0.0,98,0.00,CLR,,0.00,WeatherDisplay:10.37,2013-04-27 04:23:00,
2013-04-27 00:28:00,74.5,73.9,31.04,ESE,112,0.0,0.0,98,0.00,CLR,,0.00,WeatherDisplay:10.37,2013-04-27 04:28:00,
2013-04-27 00:33:00,74.5,73.9,31.04,SSE,158,0.0,0.0,98,0.00,CLR,,0.00,WeatherDisplay:10.37,2013-04-27 04:33:00,
2013-04-27 00:38:00,74.5,73.9,31.07,South,180,1.1,0.0,98,0.00,CLR,,0.00,WeatherDisplay:10.37,2013-04-27 04:38:00,
2013-04-27 00:43:00,74.5,73.9,31.07,South,180,0.0,0.0,98,0.00,CLR,,0.00,WeatherDisplay:10.37,2013-04-27 04:43:00,
2013-04-27 00:48:00,74.5,73.9,31.09,NW,315,0.0,0.0,98,0.00,CLR,,0.00,WeatherDisplay:10.37,2013-04-27 04:48:00,
2013-04-27 00:53:00,74.3,73.7,31.09,NW,315,0.0,0.0,98,0.00,CLR,,0.00,WeatherDisplay:10.37,2013-04-27 04:53:00,
2013-04-27 00:58:00,74.5,73.9,31.09,NW,315,0.0,0.0,98,0.00,CLR,,0.00,WeatherDisplay:10.37,2013-04-27 04:58:00,
2013-04-27 01:03:00,74.5,73.9,31.09,NW,315,0.0,0.0,98,0.00,CLR,,0.00,WeatherDisplay:10.37,2013-04-27 05:03:00,
2013-04-27 01:08:00,74.3,73.7,31.09,NW,315,0.0,0.0,98,0.00,CLR,,0.00,WeatherDisplay:10.37,2013-04-27 05:08:00,
2013-04-27 01:13:00,74.5,73.9,31.10,NW,315,1.1,0.0,98,0.00,CLR,,0.00,WeatherDisplay:10.37,2013-04-27 05:13:00,
2013-04-27 01:18:00,74.5,73.9,31.10,NW,315,1.1,1.1,98,0.00,CLR,,0.00,WeatherDisplay:10.37,2013-04-27 05:18:00,
2013-04-27 01:23:00,74.5,73.9,31.11,SSW,202,1.1,1.1,98,0.00,CLR,,0.00,WeatherDisplay:10.37,2013-04-27 05:23:00,
2013-04-27 01:28:00,74.5,73.9,31.11,SE,135,0.0,0.0,98,0.00,CLR,,0.00,WeatherDisplay:10.37,2013-04-27 05:28:00,
2013-04-27 01:33:00,74.5,73.9,31.11,SE,135,0.0,0.0,98,0.00,CLR,,0.00,WeatherDisplay:10.37,2013-04-27 05:33:00,
2013-04-27 01:38:00,74.5,73.9,31.13,SE,135,0.0,0.0,98,0.00,CLR,,0.00,WeatherDisplay:10.37,2013-04-27 05:38:00,
2013-04-27 01:43:00,74.5,73.9,31.13,SE,135,0.0,0.0,98,0.00,CLR,,0.00,WeatherDisplay:10.37,2013-04-27 05:43:00,
2013-04-27 01:48:00,74.3,73.7,31.14,SSW,202,0.0,0.0,98,0.00,CLR,,0.00,WeatherDisplay:10.37,2013-04-27 05:48:00,
2013-04-27 01:53:00,74.3,73.7,31.14,SE,135,1.1,0.0,98,0.00,CLR,,0.00,WeatherDisplay:10.37,2013-04-27 05:53:00,
2013-04-27 01:58:00,74.3,73.7,31.15,SE,135,0.0,0.0,98,0.00,CLR,,0.00,WeatherDisplay:10.37,2013-04-27 05:58:00,
2013-04-27 02:03:00,74.3,73.7,31.15,SW,225,2.3,2.3,98,0.00,CLR,,0.00,WeatherDisplay:10.37,2013-04-27 06:03:00,
2013-04-27 02:08:00,74.3,73.7,31.15,NNW,338,2.3,0.0,98,0.00,CLR,,0.00,WeatherDisplay:10.37,2013-04-27 06:08:00,
2013-04-27 02:13:00,74.1,73.5,31.15,SSE,158,3.5,0.0,98,0.00,CLR,,0.00,WeatherDisplay:10.37,2013-04-27 06:13:00,
2013-04-27 02:18:00,73.9,73.3,31.15,SSE,158,2.3,2.6,98,0.00,CLR,,0.00,WeatherDisplay:10.37,2013-04-27 06:18:00,
2013-04-27 02:23:00,73.9,73.3,31.17,South,180,0.0,0.0,98,0.00,CLR,,0.00,WeatherDisplay:10.37,2013-04-27 06:23:00,
2013-04-27 02:28:00,73.9,73.3,31.17,North,360,2.3,0.0,98,0.00,CLR,,0.00,WeatherDisplay:10.37,2013-04-27 06:28:00,
2013-04-27 02:33:00,73.9,73.3,31.17,North,360,0.0,0.0,98,0.00,CLR,,0.00,WeatherDisplay:10.37,2013-04-27 06:33:00,
2013-04-27 02:38:00,73.8,73.2,31.02,SE,135,0.0,0.0,98,0.00,CLR,,0.00,WeatherDisplay:10.37,2013-04-27 06:38:00,
2013-04-27 02:43:00,73.6,73.0,31.02,South,180,0.0,0.0,98,0.00,CLR,,0.00,WeatherDisplay:10.37,2013-04-27 06:43:00,
2013-04-27 02:48:00,73.6,73.0,30.75,SSE,158,0.0,0.0,98,0.00,CLR,,0.00,WeatherDisplay:10.37,2013-04-27 06:48:00,
2013-04-27 02:53:00,73.6,73.0,30.75,North,360,0.0,0.0,98,0.00,CLR,,0.00,WeatherDisplay:10.37,2013-04-27 06:53:00,
2013-04-27 02:59:00,73.4,72.8,30.75,North,360,0.0,0.0,98,0.00,CLR,,0.00,WeatherDisplay:10.37,2013-04-27 06:59:00,
2013-04-27 03:04:00,73.2,72.6,30.57,North,360,0.0,0.0,98,0.00,CLR,,0.00,WeatherDisplay:10.37,2013-04-27 07:04:00,
2013-04-27 03:09:00,73.2,72.6,30.57,North,360,0.0,0.0,98,0.00,CLR,,0.00,WeatherDisplay:10.37,2013-04-27 07:09:00,
2013-04-27 03:14:00,73.0,72.4,30.46,SE,135,0.0,0.0,98,0.00,CLR,,0.00,WeatherDisplay:10.37,2013-04-27 07:14:00,
2013-04-27 03:19:00,73.2,72.6,30.46,SE,135,0.0,0.0,98,0.00,CLR,,0.00,WeatherDisplay:10.37,2013-04-27 07:19:00,
2013-04-27 03:24:00,73.0,72.4,30.38,SE,135,0.0,0.0,98,0.00,CLR,,0.00,WeatherDisplay:10.37,2013-04-27 07:24:00,
2013-04-27 03:29:00,73.0,72.4,30.38,SE,135,0.0,0.0,98,0.00,CLR,,0.00,WeatherDisplay:10.37,2013-04-27 07:29:00,
2013-04-27 03:34:00,73.0,72.4,30.38,SE,135,0.0,0.0,98,0.00,CLR,,0.00,WeatherDisplay:10.37,2013-04-27 07:34:00,
2013-04-27 03:39:00,72.9,72.3,30.34,SE,135,0.0,0.0,98,0.00,CLR,,0.00,WeatherDisplay:10.37,2013-04-27 07:39:00,
2013-04-27 03:44:00,72.9,72.3,30.34,ESE,112,0.0,0.0,98,0.00,CLR,,0.00,WeatherDisplay:10.37,2013-04-27 07:44:00,
2013-04-27 03:49:00,72.9,72.3,30.31,SSE,158,0.0,0.0,98,0.00,CLR,,0.00,WeatherDisplay:10.37,2013-04-27 07:49:00,
2013-04-27 03:54:00,72.7,72.1,30.31,SSE,158,0.0,0.0,98,0.00,CLR,,0.00,WeatherDisplay:10.37,2013-04-27 07:54:00,
2013-04-27 03:59:00,72.7,72.1,30.31,SSE,158,0.0,0.0,98,0.00,CLR,,0.00,WeatherDisplay:10.37,2013-04-27 07:59:00,
2013-04-27 04:04:00,72.5,71.9,30.26,SSE,158,0.0,0.0,98,0.00,CLR,,0.00,WeatherDisplay:10.37,2013-04-27 08:04:00,
2013-04-27 04:09:00,72.5,71.9,30.26,SW,225,0.0,0.0,98,0.00,CLR,,0.00,WeatherDisplay:10.37,2013-04-27 08:09:00,
2013-04-27 04:14:00,72.7,72.1,30.23,ESE,112,1.1,1.1,98,0.00,CLR,,0.00,WeatherDisplay:10.37,2013-04-27 08:14:00,
2013-04-27 04:19:00,72.7,72.1,30.23,NNE,22,0.0,0.0,98,0.00,CLR,,0.00,WeatherDisplay:10.37,2013-04-27 08:19:00,
2013-04-27 04:24:00,72.7,72.1,30.38,ESE,112,0.0,0.0,98,0.00,CLR,,0.00,WeatherDisplay:10.37,2013-04-27 08:24:00,
2013-04-27 04:29:00,72.5,71.9,30.38,SE,135,0.0,0.0,98,0.00,CLR,,0.00,WeatherDisplay:10.37,2013-04-27 08:29:00,
2013-04-27 04:34:00,72.5,71.9,30.38,ESE,112,0.0,0.0,98,0.00,CLR,,0.00,WeatherDisplay:10.37,2013-04-27 08:34:00,
2013-04-27 04:39:00,72.3,71.7,30.70,SSW,202,0.0,0.0,98,0.00,CLR,,0.00,WeatherDisplay:10.37,2013-04-27 08:39:00,
2013-04-27 04:44:00,72.3,71.7,30.70,ESE,112,1.1,1.1,98,0.00,CLR,,0.00,WeatherDisplay:10.37,2013-04-27 08:44:00,
2013-04-27 04:49:00,72.3,71.7,30.84,SE,135,0.0,0.0,98,0.00,CLR,,0.00,WeatherDisplay:10.37,2013-04-27 08:49:00,
2013-04-27 04:54:00,72.3,71.7,30.84,SE,135,0.0,0.0,98,0.00,CLR,,0.00,WeatherDisplay:10.37,2013-04-27 08:54:00,
2013-04-27 04:59:00,72.5,71.9,30.92,SSE,158,0.0,0.0,98,0.00,CLR,,0.00,WeatherDisplay:10.37,2013-04-27 08:59:00,
2013-04-27 05:04:00,72.3,71.7,30.92,SSE,158,0.0,0.0,98,0.00,CLR,,0.00,WeatherDisplay:10.37,2013-04-27 09:04:00,
2013-04-27 05:09:00,72.1,71.5,30.92,SSE,158,0.0,0.0,98,0.00,CLR,,0.00,WeatherDisplay:10.37,2013-04-27 09:09:00,
2013-04-27 05:14:00,72.0,71.4,30.99,SSE,158,0.0,0.0,98,0.00,CLR,,0.00,WeatherDisplay:10.37,2013-04-27 09:14:00,
2013-04-27 05:19:00,71.8,71.2,30.99,SSE,158,0.0,0.0,98,0.00,CLR,,0.00,WeatherDisplay:10.37,2013-04-27 09:19:00,
2013-04-27 05:24:00,72.0,71.4,31.02,ESE,112,0.0,0.0,98,0.00,CLR,,0.00,WeatherDisplay:10.37,2013-04-27 09:24:00,
2013-04-27 05:29:00,72.0,71.4,31.02,ESE,112,0.0,0.0,98,0.00,CLR,,0.00,WeatherDisplay:10.37,2013-04-27 09:29:00,
2013-04-27 05:34:00,72.0,71.4,31.02,ESE,112,0.0,0.0,98,0.00,CLR,,0.00,WeatherDisplay:10.37,2013-04-27 09:34:00,
2013-04-27 05:39:00,72.0,71.4,31.07,ESE,112,0.0,0.0,98,0.00,CLR,,0.00,WeatherDisplay:10.37,2013-04-27 09:39:00,
2013-04-27 05:44:00,72.0,71.4,31.07,ESE,112,0.0,0.0,98,0.00,CLR,,0.00,WeatherDisplay:10.37,2013-04-27 09:44:00,
2013-04-27 05:49:00,71.8,71.2,31.10,ESE,112,0.0,0.0,98,0.00,CLR,,0.00,WeatherDisplay:10.37,2013-04-27 09:49:00,
2013-04-27 05:54:00,71.6,71.0,31.10,ESE,112,0.0,0.0,98,0.00,CLR,,0.00,WeatherDisplay:10.37,2013-04-27 09:54:00,
2013-04-27 05:59:00,71.6,71.0,30.98,ESE,112,0.0,0.0,98,0.00,CLR,,0.00,WeatherDisplay:10.37,2013-04-27 09:59:00,
2013-04-27 06:04:00,71.6,71.0,30.98,ESE,112,0.0,0.0,98,0.00,CLR,,0.00,WeatherDisplay:10.37,2013-04-27 10:04:00,
2013-04-27 06:09:00,71.6,71.0,30.98,ESE,112,0.0,0.0,98,0.00,CLR,,0.00,WeatherDisplay:10.37,2013-04-27 10:09:00,
2013-04-27 06:14:00,71.6,71.0,30.74,ESE,112,0.0,0.0,98,0.00,CLR,,0.00,WeatherDisplay:10.37,2013-04-27 10:14:00,
2013-04-27 06:19:00,71.8,71.2,30.74,ESE,112,0.0,0.0,98,0.00,CLR,,0.00,WeatherDisplay:10.37,2013-04-27 10:19:00,
2013-04-27 06:24:00,71.8,71.2,30.61,ESE,112,0.0,0.0,98,0.00,CLR,,0.00,WeatherDisplay:10.37,2013-04-27 10:24:00,
2013-04-27 06:29:00,71.8,71.2,30.61,ESE,112,0.0,0.0,98,0.00,CLR,,0.00,WeatherDisplay:10.37,2013-04-27 10:29:00,
2013-04-27 06:34:00,71.8,71.2,30.61,ESE,112,0.0,0.0,98,0.00,CLR,,0.00,WeatherDisplay:10.37,2013-04-27 10:34:00,